Location: Newark
(40.9833°N, 0.0333°W)
Time: 03:30:25
(UTC+00:00)

Transit 2A Rocket - Pass Details

Date: 31 October 2020
Orbit: 588 x 914 km, 66.7° (Epoch: 26 November)

Event Time Altitude Azimuth Distance (km) Brightness Sun altitude
Rises 08:36:11 0° 204° (SSW) 3,527 8.7 19.7°
Reaches altitude 10° 08:38:42 10° 203° (SSW) 2,595 8.1 20.1°
Maximum altitude 08:44:48 79° 117° (ESE) 925 6.0 21.0°
Drops below altitude 10° 08:50:45 10° 32° (NNE) 2,534 7.6 21.8°
Sets 08:53:11 0° 32° (NNE) 3,439 8.2 22.1°
